Location: Albuquerque Trailhead
(34.7934°N, 106.3736°W)
Time: 23:25:08
(UTC+00:00)

NOAA 19 - Pass Details

Date: 07 April 2023
Orbit: 840 x 859 km, 99.1° (Epoch: 28 May)

Event Time Altitude Azimuth Distance (km) Brightness Sun altitude
Exits shadow 03:35:59 17° 195° (SSW) 2,014 7.0 -25.1°
Maximum altitude 03:39:54 44° 260° (W) 1,157 6.2 -25.8°
Drops below altitude 10° 03:45:06 10° 332° (NNW) 2,465 8.3 -26.8°
Sets 03:47:35 0° 339° (NNW) 3,402 9.1 -27.2°
